| time (UTC) | temp C | wind direction | speed KPH | gust KPH | rain 1hr cm | rain 24hr cm | rain mn cm | humidity % | barometer mb |
| 20260510095238 | 8 | 66 | 0.0 | 3.2 | 0.00 | 0.74 | 0.03 | 86 | 1022.1 |
| 20260510095003 | 8 | 66 | 0.0 | 3.2 | 0.00 | 0.74 | 0.03 | 87 | 1022.1 |
| 20260510094225 | 8 | 66 | 0.0 | 3.2 | 0.00 | 0.74 | 0.03 | 87 | 1022.0 |
| 20260510093719 | 8 | 66 | 0.0 | 3.2 | 0.00 | 0.74 | 0.03 | 87 | 1022.0 |
| 20260510093213 | 8 | 66 | 0.0 | 3.2 | 0.00 | 0.74 | 0.03 | 87 | 1021.9 |
| 20260510092707 | 8 | 66 | 0.0 | 3.2 | 0.00 | 0.74 | 0.03 | 88 | 1021.6 |
| 20260510092202 | 8 | 66 | 0.0 | 3.2 | 0.00 | 0.74 | 0.03 | 88 | 1021.6 |
| 20260510091655 | 8 | 66 | 0.0 | 3.2 | 0.00 | 0.74 | 0.03 | 88 | 1021.6 |
| 20260510091419 | 8 | 66 | 0.0 | 0.0 | 0.00 | 0.74 | 0.03 | 87 | 1021.5 |
| 20260510090643 | 8 | 66 | 0.0 | 0.0 | 0.00 | 0.74 | 0.03 | 88 | 1021.4 |
| 20260510090137 | 8 | 66 | 0.0 | 0.0 | 0.00 | 0.74 | 0.03 | 88 | 1021.3 |
| 20260510085635 | 8 | 66 | 0.0 | 0.0 | 0.00 | 0.74 | 0.03 | 88 | 1021.2 |
| 20260510085133 | 8 | 66 | 0.0 | 0.0 | 0.00 | 0.74 | 0.03 | 88 | 1021.0 |
| 20260510084633 | 8 | 66 | 0.0 | 0.0 | 0.00 | 0.74 | 0.03 | 88 | 1021.0 |
| 20260510084133 | 8 | 66 | 0.0 | 0.0 | 0.00 | 0.74 | 0.03 | 88 | 1020.9 |
| 20260510083632 | 8 | 66 | 0.0 | 0.0 | 0.00 | 0.74 | 0.03 | 87 | 1020.8 |
| 20260510083133 | 8 | 66 | 0.0 | 0.0 | 0.00 | 0.74 | 0.03 | 87 | 1020.8 |
| 20260510082633 | 8 | 66 | 0.0 | 0.0 | 0.00 | 0.74 | 0.03 | 86 | 1020.8 |
| 20260510082133 | 8 | 66 | 0.0 | 0.0 | 0.00 | 0.74 | 0.03 | 86 | 1020.8 |
| 20260510081902 | 8 | 66 | 0.0 | 0.0 | 0.00 | 0.74 | 0.03 | 86 | 1020.5 |
| 20260510081129 | 8 | 66 | 0.0 | 0.0 | 0.00 | 0.74 | 0.03 | 86 | 1020.5 |
| 20260510080631 | 8 | 66 | 0.0 | 1.6 | 0.00 | 0.74 | 0.03 | 87 | 1020.3 |
| 20260510080129 | 8 | 66 | 0.0 | 1.6 | 0.00 | 0.74 | 0.03 | 86 | 1020.2 |
| 20260510075627 | 8 | 66 | 0.0 | 1.6 | 0.00 | 0.74 | 0.03 | 86 | 1020.1 |
| 20260510075125 | 8 | 66 | 0.0 | 1.6 | 0.00 | 0.74 | 0.03 | 86 | 1020.0 |
| 20260510074623 | 8 | 66 | 0.0 | 1.6 | 0.00 | 0.74 | 0.03 | 86 | 1019.9 |
| 20260510074121 | 9 | 66 | 0.0 | 0.0 | 0.00 | 0.74 | 0.03 | 86 | 1020.0 |
| 20260510073850 | 9 | 66 | 0.0 | 0.0 | 0.00 | 0.74 | 0.03 | 85 | 1019.9 |
| 20260510073116 | 9 | 66 | 0.0 | 3.2 | 0.00 | 0.74 | 0.03 | 85 | 1019.9 |
| 20260510072617 | 9 | 66 | 0.0 | 3.2 | 0.00 | 0.74 | 0.03 | 85 | 1019.8 |
| 20260510072117 | 9 | 66 | 0.0 | 3.2 | 0.00 | 0.74 | 0.03 | 86 | 1019.7 |
| 20260510071615 | 9 | 66 | 0.0 | 3.2 | 0.00 | 0.74 | 0.03 | 86 | 1019.7 |
| 20260510071115 | 9 | 66 | 0.0 | 3.2 | 0.00 | 0.74 | 0.03 | 86 | 1019.7 |
| 20260510070614 | 9 | 53 | 0.0 | 3.2 | 0.00 | 0.74 | 0.03 | 87 | 1019.6 |
| 20260510070115 | 9 | 37 | 0.0 | 3.2 | 0.00 | 0.74 | 0.03 | 87 | 1019.7 |
| 20260510065614 | 9 | 37 | 0.0 | 3.2 | 0.00 | 0.74 | 0.03 | 87 | 1019.6 |
| 20260510065115 | 9 | 49 | 0.0 | 3.2 | 0.00 | 0.74 | 0.03 | 87 | 1019.5 |
| 20260510064616 | 9 | 49 | 0.0 | 3.2 | 0.00 | 0.74 | 0.03 | 87 | 1019.4 |
| 20260510064115 | 9 | 49 | 0.0 | 3.2 | 0.00 | 0.74 | 0.03 | 86 | 1019.4 |
| 20260510063611 | 9 | 49 | 0.0 | 3.2 | 0.00 | 0.74 | 0.03 | 86 | 1019.5 |
| 20260510063110 | 10 | 49 | 0.0 | 3.2 | 0.00 | 0.74 | 0.03 | 86 | 1019.4 |
| 20260510062842 | 10 | 49 | 0.0 | 3.2 | 0.00 | 0.74 | 0.03 | 86 | 1019.3 |
| 20260510062111 | 10 | 49 | 0.0 | 3.2 | 0.00 | 0.74 | 0.03 | 87 | 1019.4 |
| 20260510061842 | 10 | 49 | 0.0 | 3.2 | 0.03 | 0.74 | 0.03 | 86 | 1019.3 |
| 20260510061111 | 10 | 42 | 0.0 | 3.2 | 0.03 | 0.74 | 0.03 | 86 | 1019.4 |
| 20260510060841 | 10 | 34 | 0.0 | 3.2 | 0.03 | 0.74 | 0.03 | 86 | 1019.3 |
| 20260510060110 | 10 | 43 | 0.0 | 3.2 | 0.03 | 0.74 | 0.03 | 86 | 1019.3 |
| 20260510055610 | 10 | 46 | 0.0 | 3.2 | 0.03 | 0.74 | 0.03 | 86 | 1019.2 |
| 20260510055111 | 10 | 55 | 0.0 | 3.2 | 0.03 | 0.74 | 0.03 | 86 | 1019.4 |
| 20260510054611 | 10 | 35 | 0.0 | 6.4 | 0.03 | 0.74 | 0.03 | 85 | 1019.4 |
| 20260510054110 | 11 | 41 | 1.6 | 6.4 | 0.03 | 0.74 | 0.03 | 85 | 1018.9 |
| 20260510053611 | 11 | 28 | 1.6 | 6.4 | 0.03 | 0.74 | 0.03 | 84 | 1018.6 |
| 20260510053111 | 11 | 126 | 1.6 | 6.4 | 0.03 | 0.74 | 0.03 | 84 | 1018.3 |
| 20260510052610 | 12 | 82 | 1.6 | 8.0 | 0.03 | 0.74 | 0.03 | 84 | 1018.2 |
| 20260510052111 | 12 | 92 | 1.6 | 8.0 | 0.03 | 0.74 | 0.03 | 84 | 1018.3 |
| 20260510051610 | 12 | 41 | 1.6 | 8.0 | 0.00 | 0.71 | 0.00 | 82 | 1018.4 |
| 20260510051109 | 13 | 12 | 1.6 | 8.0 | 0.00 | 0.71 | 0.00 | 82 | 1019.1 |
| 20260510050604 | 13 | 311 | 1.6 | 4.8 | 0.00 | 0.71 | 0.00 | 83 | 1019.1 |
| 20260510050328 | 13 | 36 | 0.0 | 3.2 | 0.00 | 0.71 | 0.00 | 84 | 1018.5 |
| 20260510045552 | 13 | 15 | 1.6 | 3.2 | 0.00 | 0.71 | 0.71 | 84 | 1018.0 |
| 20260510045046 | 13 | 15 | 0.0 | 3.2 | 0.00 | 0.71 | 0.71 | 84 | 1017.9 |
| 20260510044540 | 13 | 23 | 0.0 | 3.2 | 0.00 | 0.71 | 0.71 | 84 | 1017.6 |
| 20260510044306 | 13 | 23 | 0.0 | 3.2 | 0.00 | 0.74 | 0.71 | 84 | 1017.4 |
| 20260510043022 | 13 | 230 | 0.0 | 3.2 | 0.00 | 0.74 | 0.71 | 82 | 1016.6 |
| 20260510042516 | 13 | 211 | 0.0 | 3.2 | 0.00 | 0.74 | 0.71 | 81 | 1016.6 |
| 20260510042010 | 13 | 203 | 0.0 | 6.4 | 0.00 | 0.74 | 0.71 | 80 | 1016.6 |
| 20260510041504 | 13 | 202 | 0.0 | 6.4 | 0.00 | 0.74 | 0.71 | 80 | 1016.5 |
| 20260510040958 | 13 | 219 | 1.6 | 9.7 | 0.00 | 0.76 | 0.71 | 80 | 1016.5 |
| 20260510040451 | 13 | 135 | 1.6 | 9.7 | 0.00 | 0.79 | 0.71 | 80 | 1016.4 |
| 20260510035946 | 13 | 283 | 1.6 | 11.3 | 0.00 | 0.79 | 0.71 | 80 | 1016.6 |
| 20260510035440 | 13 | 240 | 1.6 | 11.3 | 0.00 | 0.79 | 0.71 | 80 | 1016.5 |
| 20260510034933 | 13 | 277 | 3.2 | 11.3 | 0.00 | 0.81 | 0.71 | 80 | 1016.6 |
| 20260510034659 | 13 | 148 | 3.2 | 11.3 | 0.00 | 0.81 | 0.71 | 81 | 1016.5 |
| 20260510034153 | 13 | 258 | 1.6 | 11.3 | 0.00 | 0.81 | 0.71 | 83 | 1016.5 |
| 20260510033416 | 13 | 286 | 1.6 | 11.3 | 0.00 | 0.81 | 0.71 | 83 | 1016.7 |
| 20260510032909 | 13 | 184 | 0.0 | 4.8 | 0.00 | 0.81 | 0.71 | 84 | 1016.7 |
| 20260510032404 | 13 | 229 | 0.0 | 4.8 | 0.00 | 0.81 | 0.71 | 85 | 1016.6 |
| 20260510031858 | 13 | 263 | 1.6 | 3.2 | 0.00 | 0.81 | 0.71 | 85 | 1016.5 |
| 20260510031352 | 13 | 173 | 0.0 | 3.2 | 0.00 | 0.81 | 0.71 | 85 | 1016.6 |
| 20260510031116 | 13 | 227 | 0.0 | 3.2 | 0.00 | 0.81 | 0.71 | 84 | 1016.5 |
| 20260510030340 | 13 | 208 | 0.0 | 3.2 | 0.00 | 0.81 | 0.71 | 84 | 1016.4 |
| 20260510025834 | 13 | 152 | 1.6 | 9.7 | 0.00 | 0.81 | 0.71 | 84 | 1016.4 |
| 20260510025328 | 13 | 254 | 1.6 | 9.7 | 0.00 | 0.81 | 0.71 | 84 | 1016.5 |
| 20260510024821 | 13 | 220 | 3.2 | 9.7 | 0.00 | 0.81 | 0.71 | 84 | 1016.7 |
| 20260510024316 | 13 | 325 | 1.6 | 9.7 | 0.00 | 0.81 | 0.71 | 86 | 1016.8 |
| 20260510023810 | 13 | 237 | 1.6 | 6.4 | 0.00 | 0.81 | 0.71 | 88 | 1016.9 |
| 20260510023304 | 12 | 170 | 0.0 | 4.8 | 0.00 | 0.81 | 0.71 | 88 | 1016.9 |
| 20260510023029 | 12 | 205 | 0.0 | 3.2 | 0.00 | 0.81 | 0.71 | 88 | 1016.4 |
| 20260510022522 | 12 | 269 | 0.0 | 3.2 | 0.00 | 0.81 | 0.71 | 88 | 1016.3 |
| 20260510021746 | 12 | 123 | 0.0 | 3.2 | 0.00 | 0.81 | 0.71 | 88 | 1016.1 |
| 20260510021511 | 12 | 216 | 0.0 | 4.8 | 0.00 | 0.81 | 0.71 | 88 | 1016.3 |
| 20260510020733 | 12 | 244 | 0.0 | 4.8 | 0.00 | 0.81 | 0.71 | 88 | 1016.4 |
| 20260510020227 | 12 | 152 | 0.0 | 4.8 | 0.00 | 0.81 | 0.71 | 88 | 1016.3 |
| 20260510015721 | 12 | 250 | 0.0 | 4.8 | 0.00 | 0.81 | 0.71 | 88 | 1016.3 |
| 20260510015215 | 12 | 190 | 0.0 | 3.2 | 0.00 | 0.81 | 0.71 | 88 | 1016.3 |
| 20260510014710 | 12 | 196 | 0.0 | 3.2 | 0.00 | 0.81 | 0.71 | 88 | 1016.3 |
| 20260510014203 | 12 | 197 | 1.6 | 6.4 | 0.00 | 0.81 | 0.71 | 88 | 1016.4 |
| 20260510013658 | 12 | 206 | 1.6 | 6.4 | 0.00 | 0.81 | 0.71 | 88 | 1016.3 |
| 20260510013152 | 12 | 163 | 0.0 | 4.8 | 0.00 | 0.81 | 0.71 | 88 | 1016.3 |
| 20260510012645 | 12 | 202 | 0.0 | 4.8 | 0.00 | 0.81 | 0.71 | 88 | 1016.1 |
| 20260510012410 | 12 | 160 | 0.0 | 4.8 | 0.00 | 0.81 | 0.71 | 88 | 1016.0 |
| 20260510011635 | 12 | 207 | 1.6 | 8.0 | 0.00 | 0.81 | 0.71 | 88 | 1015.9 |
| 20260510011128 | 12 | 148 | 1.6 | 8.0 | 0.00 | 0.81 | 0.71 | 88 | 1015.9 |
| 20260510010621 | 12 | 252 | 0.0 | 6.4 | 0.00 | 0.81 | 0.71 | 88 | 1015.8 |
| 20260510010116 | 12 | 236 | 0.0 | 4.8 | 0.00 | 0.81 | 0.71 | 88 | 1015.7 |
| 20260510005609 | 12 | 219 | 1.6 | 8.0 | 0.00 | 0.81 | 0.71 | 89 | 1015.7 |
| 20260510004834 | 13 | 219 | 1.6 | 9.7 | 0.00 | 0.81 | 0.71 | 89 | 1015.9 |
| 20260510004335 | 13 | 138 | 1.6 | 9.7 | 0.00 | 0.81 | 0.71 | 89 | 1015.9 |
| 20260510003604 | 13 | 165 | 0.0 | 4.8 | 0.00 | 0.81 | 0.71 | 89 | 1016.0 |
| 20260510003102 | 13 | 208 | 1.6 | 4.8 | 0.00 | 0.81 | 0.71 | 89 | 1015.9 |
| 20260510002559 | 13 | 227 | 1.6 | 6.4 | 0.00 | 0.84 | 0.71 | 89 | 1015.9 |
| 20260510002100 | 13 | 197 | 1.6 | 6.4 | 0.00 | 0.84 | 0.71 | 89 | 1015.9 |
| 20260510001600 | 13 | 228 | 1.6 | 6.4 | 0.00 | 0.86 | 0.71 | 90 | 1015.9 |
| 20260510001059 | 13 | 190 | 1.6 | 6.4 | 0.00 | 0.89 | 0.71 | 90 | 1015.8 |
| 20260510000600 | 13 | 123 | 0.0 | 8.0 | 0.00 | 0.89 | 0.71 | 90 | 1015.9 |
| 20260510000100 | 13 | 174 | 1.6 | 8.0 | 0.05 | 0.89 | 0.71 | 90 | 1015.6 |
| 20260509235600 | 13 | 198 | 1.6 | 8.0 | 0.08 | 0.91 | 0.71 | 90 | 1015.7 |
| 20260509235059 | 13 | 306 | 1.6 | 9.7 | 0.20 | 0.91 | 0.71 | 90 | 1015.7 |
| 20260509234600 | 13 | 65 | 3.2 | 12.9 | 0.56 | 0.91 | 0.71 | 90 | 1015.7 |
| 20260509234059 | 13 | 274 | 1.6 | 12.9 | 0.69 | 0.94 | 0.71 | 90 | 1015.7 |
| 20260509233600 | 13 | 334 | 1.6 | 12.9 | 0.71 | 0.94 | 0.71 | 90 | 1015.6 |
| 20260509233058 | 13 | 243 | 1.6 | 12.9 | 0.71 | 0.97 | 0.71 | 90 | 1015.6 |
| 20260509232558 | 13 | 169 | 1.6 | 6.4 | 0.71 | 0.97 | 0.71 | 90 | 1015.6 |
| 20260509232056 | 13 | 51 | 0.0 | 4.8 | 0.71 | 0.99 | 0.71 | 90 | 1015.6 |
| 20260509231556 | 13 | 108 | 1.6 | 4.8 | 0.71 | 1.02 | 0.71 | 89 | 1015.5 |
| 20260509231055 | 13 | 115 | 1.6 | 8.0 | 0.71 | 1.02 | 0.71 | 89 | 1015.6 |
| 20260509230557 | 13 | 128 | 1.6 | 8.0 | 0.71 | 1.04 | 0.71 | 88 | 1015.5 |
| 20260509230055 | 13 | 327 | 1.6 | 8.0 | 0.64 | 0.97 | 0.66 | 86 | 1016.1 |
| 20260509225558 | 13 | 19 | 3.2 | 8.0 | 0.64 | 0.99 | 0.64 | 83 | 1016.1 |
| 20260509225058 | 14 | 35 | 3.2 | 16.1 | 0.51 | 0.86 | 0.51 | 80 | 1016.4 |
| 20260509224558 | 15 | 313 | 3.2 | 16.1 | 0.15 | 0.53 | 0.20 | 73 | 1016.1 |
| 20260509224058 | 17 | 355 | 3.2 | 16.1 | 0.03 | 0.41 | 0.03 | 61 | 1015.9 |
| 20260509223054 | 20 | 70 | 3.2 | 17.7 | 0.00 | 0.38 | 0.00 | 51 | 1013.9 |
| 20260509222554 | 20 | 288 | 4.8 | 19.3 | 0.00 | 0.38 | 0.00 | 49 | 1013.2 |
| 20260509222051 | 20 | 107 | 4.8 | 19.3 | 0.00 | 0.38 | 0.00 | 50 | 1013.2 |
| 20260509221551 | 20 | 154 | 4.8 | 19.3 | 0.00 | 0.38 | 0.00 | 50 | 1013.2 |
| 20260509221051 | 20 | 157 | 4.8 | 19.3 | 0.00 | 0.38 | 0.00 | 49 | 1013.2 |
| 20260509220823 | 20 | 220 | 4.8 | 30.6 | 0.00 | 0.38 | 0.00 | 51 | 1013.1 |
| 20260509220051 | 20 | 135 | 6.4 | 30.6 | 0.00 | 0.38 | 0.00 | 50 | 1013.1 |
| 20260509215551 | 20 | 291 | 8.0 | 30.6 | 0.00 | 0.38 | 0.00 | 49 | 1013.1 |
| 20260509215051 | 21 | 277 | 8.0 | 30.6 | 0.00 | 0.38 | 0.00 | 48 | 1013.1 |
| 20260509214552 | 21 | 167 | 6.4 | 29.0 | 0.00 | 0.38 | 0.00 | 49 | 1013.1 |
| 20260509214322 | 21 | 82 | 6.4 | 27.4 | 0.00 | 0.38 | 0.00 | 49 | 1013.0 |
| 20260509213552 | 21 | 240 | 8.0 | 30.6 | 0.00 | 0.38 | 0.00 | 48 | 1012.9 |
| 20260509213052 | 21 | 183 | 8.0 | 30.6 | 0.00 | 0.38 | 0.00 | 48 | 1012.8 |
| 20260509212822 | 22 | 161 | 6.4 | 22.5 | 0.00 | 0.38 | 0.00 | 48 | 1012.7 |
| 20260509212323 | 22 | 66 | 6.4 | 24.1 | 0.00 | 0.38 | 0.00 | 47 | 1012.7 |
| 20260509211552 | 22 | 167 | 8.0 | 24.1 | 0.00 | 0.38 | 0.00 | 48 | 1012.8 |
| 20260509211051 | 22 | 202 | 8.0 | 29.0 | 0.00 | 0.38 | 0.00 | 48 | 1013.0 |
| 20260509210545 | 22 | 148 | 8.0 | 29.0 | 0.00 | 0.38 | 0.00 | 49 | 1013.1 |
| 20260509210039 | 22 | 183 | 6.4 | 20.9 | 0.00 | 0.38 | 0.00 | 50 | 1013.1 |
| 20260509205533 | 22 | 136 | 8.0 | 25.7 | 0.00 | 0.38 | 0.00 | 50 | 1013.0 |
| 20260509205027 | 22 | 209 | 6.4 | 25.7 | 0.00 | 0.38 | 0.00 | 49 | 1013.1 |
| 20260509204521 | 22 | 157 | 6.4 | 22.5 | 0.00 | 0.38 | 0.00 | 50 | 1013.5 |
| 20260509204015 | 21 | 77 | 6.4 | 22.5 | 0.00 | 0.38 | 0.00 | 49 | 1013.3 |
| 20260509203510 | 21 | 349 | 8.0 | 22.5 | 0.00 | 0.38 | 0.00 | 48 | 1013.6 |
| 20260509203004 | 21 | 69 | 6.4 | 22.5 | 0.00 | 0.38 | 0.00 | 47 | 1013.8 |
| 20260509202457 | 21 | 110 | 6.4 | 22.5 | 0.00 | 0.38 | 0.00 | 47 | 1013.9 |
| 20260509201951 | 21 | 291 | 8.0 | 17.7 | 0.00 | 0.38 | 0.00 | 48 | 1013.9 |
| 20260509201445 | 21 | 13 | 6.4 | 24.1 | 0.00 | 0.38 | 0.00 | 47 | 1013.9 |
| 20260509200938 | 21 | 284 | 6.4 | 24.1 | 0.00 | 0.38 | 0.00 | 48 | 1014.0 |
| 20260509200704 | 21 | 333 | 8.0 | 25.7 | 0.00 | 0.38 | 0.00 | 49 | 1014.0 |
| 20260509195927 | 21 | 55 | 6.4 | 27.4 | 0.00 | 0.38 | 0.00 | 49 | 1014.1 |
| 20260509195421 | 21 | 227 | 6.4 | 27.4 | 0.00 | 0.38 | 0.00 | 50 | 1014.2 |
| 20260509194914 | 21 | 204 | 8.0 | 24.1 | 0.00 | 0.38 | 0.00 | 51 | 1014.2 |
| 20260509194409 | 21 | 221 | 6.4 | 22.5 | 0.00 | 0.38 | 0.00 | 50 | 1014.3 |
| 20260509193903 | 21 | 193 | 6.4 | 22.5 | 0.00 | 0.38 | 0.00 | 52 | 1014.2 |
| 20260509193629 | 21 | 144 | 6.4 | 24.1 | 0.00 | 0.38 | 0.00 | 51 | 1014.4 |
| 20260509193123 | 21 | 165 | 6.4 | 24.1 | 0.00 | 0.38 | 0.00 | 50 | 1014.6 |
| 20260509192345 | 21 | 196 | 6.4 | 24.1 | 0.00 | 0.38 | 0.00 | 52 | 1014.6 |
| 20260509191838 | 21 | 98 | 6.4 | 24.1 | 0.00 | 0.38 | 0.00 | 52 | 1014.6 |
| 20260509191332 | 20 | 168 | 6.4 | 24.1 | 0.00 | 0.38 | 0.00 | 52 | 1014.7 |
| 20260509190826 | 20 | 231 | 6.4 | 24.1 | 0.00 | 0.38 | 0.00 | 53 | 1014.9 |
| 20260509190320 | 20 | 355 | 6.4 | 20.9 | 0.00 | 0.38 | 0.00 | 53 | 1014.9 |
| 20260509185815 | 20 | 115 | 6.4 | 20.9 | 0.00 | 0.38 | 0.00 | 52 | 1014.9 |
| 20260509185309 | 20 | 138 | 4.8 | 17.7 | 0.00 | 0.38 | 0.00 | 52 | 1014.9 |
| 20260509184803 | 20 | 202 | 3.2 | 16.1 | 0.00 | 0.38 | 0.00 | 51 | 1015.1 |
| 20260509184256 | 20 | 204 | 3.2 | 16.1 | 0.00 | 0.38 | 0.00 | 52 | 1015.1 |
| 20260509183751 | 20 | 340 | 4.8 | 16.1 | 0.00 | 0.38 | 0.00 | 51 | 1015.1 |
| 20260509183244 | 20 | 111 | 4.8 | 14.5 | 0.00 | 0.38 | 0.00 | 53 | 1015.1 |
| 20260509182739 | 20 | 140 | 4.8 | 19.3 | 0.00 | 0.38 | 0.00 | 53 | 1015.1 |
| 20260509182232 | 20 | 178 | 4.8 | 19.3 | 0.00 | 0.38 | 0.00 | 51 | 1015.1 |
| 20260509181726 | 21 | 77 | 4.8 | 20.9 | 0.00 | 0.38 | 0.00 | 49 | 1015.1 |
| 20260509181221 | 21 | 306 | 4.8 | 20.9 | 0.00 | 0.38 | 0.00 | 49 | 1015.0 |
| 20260509180715 | 21 | 315 | 4.8 | 16.1 | 0.00 | 0.38 | 0.00 | 50 | 1014.9 |
| 20260509180208 | 21 | 128 | 3.2 | 14.5 | 0.00 | 0.38 | 0.00 | 52 | 1014.8 |
| 20260509175703 | 21 | 158 | 3.2 | 11.3 | 0.00 | 0.38 | 0.00 | 51 | 1015.0 |
| 20260509175157 | 20 | 124 | 4.8 | 11.3 | 0.00 | 0.38 | 0.00 | 53 | 1015.1 |
| 20260509174651 | 20 | 244 | 4.8 | 16.1 | 0.00 | 0.38 | 0.00 | 54 | 1015.2 |
| 20260509174145 | 20 | 5 | 4.8 | 16.1 | 0.00 | 0.38 | 0.00 | 54 | 1015.2 |
| 20260509173910 | 20 | 169 | 4.8 | 16.1 | 0.00 | 0.38 | 0.00 | 53 | 1015.2 |
| 20260509173133 | 20 | 159 | 3.2 | 16.1 | 0.00 | 0.38 | 0.00 | 52 | 1015.3 |
| 20260509172627 | 20 | 0 | 4.8 | 16.1 | 0.00 | 0.38 | 0.00 | 54 | 1015.2 |
| 20260509172120 | 20 | 302 | 4.8 | 16.1 | 0.00 | 0.38 | 0.00 | 55 | 1015.2 |
| 20260509171615 | 20 | 275 | 3.2 | 16.1 | 0.00 | 0.38 | 0.00 | 56 | 1015.1 |
| 20260509171108 | 20 | 271 | 4.8 | 16.1 | 0.00 | 0.38 | 0.00 | 55 | 1015.2 |
| 20260509170802 | 19 | 227 | 4.8 | 12.9 | 0.00 | 0.38 | 0.00 | 58 | 1015.5 |
| 20260509170752 | 19 | 25 | 3.2 | 14.5 | 0.00 | 0.38 | 0.00 | 56 | 1015.3 |
| 20260509170735 | 19 | 147 | 4.8 | 14.5 | 0.00 | 0.38 | 0.00 | 57 | 1015.3 |
| 20260509170718 | 19 | 48 | 4.8 | 14.5 | 0.00 | 0.38 | 0.00 | 57 | 1015.4 |
| 20260509165044 | 19 | 227 | 4.8 | 12.9 | 0.00 | 0.38 | 0.00 | 58 | 1015.5 |
| 20260509164033 | 19 | 333 | 3.2 | 16.1 | 0.00 | 0.38 | 0.00 | 61 | 1015.5 |
| 20260509163526 | 18 | 10 | 3.2 | 17.7 | 0.00 | 0.38 | 0.00 | 62 | 1015.3 |
| 20260509163021 | 18 | 161 | 3.2 | 17.7 | 0.00 | 0.38 | 0.00 | 62 | 1015.3 |
| 20260509162514 | 19 | 139 | 3.2 | 12.9 | 0.00 | 0.38 | 0.00 | 60 | 1015.4 |
| 20260509162008 | 19 | 104 | 3.2 | 16.1 | 0.00 | 0.38 | 0.00 | 62 | 1015.6 |
| 20260509161733 | 18 | 142 | 3.2 | 16.1 | 0.00 | 0.38 | 0.00 | 65 | 1015.7 |
| 20260509160956 | 18 | 323 | 3.2 | 16.1 | 0.00 | 0.38 | 0.00 | 64 | 1015.9 |
| 20260509160451 | 17 | 277 | 3.2 | 16.1 | 0.00 | 0.38 | 0.00 | 64 | 1016.0 |
| 20260509155945 | 18 | 20 | 3.2 | 12.9 | 0.00 | 0.38 | 0.00 | 67 | 1016.0 |
| 20260509155439 | 17 | 216 | 3.2 | 12.9 | 0.00 | 0.38 | 0.00 | 67 | 1016.1 |
| 20260509154932 | 17 | 107 | 3.2 | 12.9 | 0.00 | 0.38 | 0.00 | 68 | 1016.1 |
| 20260509154427 | 16 | 74 | 3.2 | 14.5 | 0.00 | 0.38 | 0.00 | 68 | 1016.3 |
| 20260509153920 | 16 | 5 | 3.2 | 14.5 | 0.00 | 0.38 | 0.00 | 69 | 1016.1 |
| 20260509153414 | 16 | 203 | 3.2 | 14.5 | 0.00 | 0.38 | 0.00 | 69 | 1016.1 |
| 20260509152908 | 16 | 290 | 3.2 | 14.5 | 0.00 | 0.38 | 0.00 | 72 | 1016.3 |
| 20260509152402 | 16 | 253 | 1.6 | 14.5 | 0.00 | 0.38 | 0.00 | 70 | 1016.1 |
| 20260509151857 | 16 | 40 | 3.2 | 16.1 | 0.00 | 0.38 | 0.00 | 70 | 1016.0 |
| 20260509151352 | 15 | 338 | 3.2 | 16.1 | 0.00 | 0.38 | 0.00 | 73 | 1016.1 |
| 20260509150845 | 15 | 50 | 4.8 | 19.3 | 0.00 | 0.38 | 0.00 | 73 | 1016.0 |
| 20260509150339 | 15 | 201 | 4.8 | 19.3 | 0.00 | 0.38 | 0.00 | 73 | 1016.0 |
| 20260509145833 | 15 | 207 | 3.2 | 12.9 | 0.00 | 0.38 | 0.00 | 71 | 1016.0 |
| 20260509145327 | 15 | 206 | 3.2 | 11.3 | 0.00 | 0.38 | 0.00 | 74 | 1016.1 |
| 20260509145052 | 15 | 176 | 1.6 | 11.3 | 0.00 | 0.38 | 0.00 | 75 | 1016.1 |
| 20260509144315 | 15 | 196 | 3.2 | 16.1 | 0.00 | 0.38 | 0.00 | 75 | 1016.1 |
| 20260509143809 | 15 | 135 | 3.2 | 16.1 | 0.00 | 0.38 | 0.00 | 79 | 1016.0 |
| 20260509143303 | 15 | 49 | 3.2 | 12.9 | 0.00 | 0.38 | 0.00 | 77 | 1015.9 |
| 20260509142756 | 15 | 138 | 3.2 | 12.9 | 0.00 | 0.38 | 0.00 | 79 | 1016.0 |
| 20260509142251 | 14 | 175 | 1.6 | 9.7 | 0.00 | 0.38 | 0.00 | 84 | 1016.0 |
| 20260509141744 | 13 | 74 | 1.6 | 9.7 | 0.00 | 0.38 | 0.00 | 84 | 1016.0 |
| 20260509141239 | 13 | 14 | 1.6 | 8.0 | 0.00 | 0.38 | 0.00 | 84 | 1016.0 |
| 20260509140732 | 13 | 27 | 1.6 | 8.0 | 0.00 | 0.38 | 0.00 | 85 | 1016.1 |
| 20260509140226 | 13 | 38 | 1.6 | 8.0 | 0.00 | 0.38 | 0.00 | 85 | 1016.1 |
| 20260509135721 | 13 | 300 | 1.6 | 8.0 | 0.00 | 0.38 | 0.00 | 85 | 1016.1 |
| 20260509135215 | 13 | 235 | 1.6 | 8.0 | 0.00 | 0.38 | 0.00 | 86 | 1016.0 |
| 20260509134709 | 13 | 211 | 3.2 | 9.7 | 0.00 | 0.38 | 0.00 | 87 | 1016.0 |
| 20260509134203 | 13 | 173 | 3.2 | 9.7 | 0.00 | 0.38 | 0.00 | 87 | 1016.1 |
| 20260509133657 | 13 | 319 | 1.6 | 4.8 | 0.00 | 0.38 | 0.00 | 88 | 1016.1 |
| 20260509133150 | 13 | 336 | 1.6 | 9.7 | 0.00 | 0.38 | 0.00 | 89 | 1016.3 |
| 20260509132915 | 12 | 325 | 1.6 | 9.7 | 0.00 | 0.38 | 0.00 | 90 | 1016.1 |
| 20260509132138 | 12 | 286 | 1.6 | 11.3 | 0.00 | 0.38 | 0.00 | 91 | 1016.1 |
| 20260509131633 | 12 | 236 | 1.6 | 11.3 | 0.00 | 0.38 | 0.00 | 91 | 1016.1 |
| 20260509131127 | 12 | 136 | 1.6 | 11.3 | 0.00 | 0.38 | 0.00 | 91 | 1016.1 |
| 20260509130620 | 12 | 115 | 1.6 | 11.3 | 0.00 | 0.38 | 0.00 | 91 | 1016.1 |
| 20260509130114 | 12 | 219 | 1.6 | 6.4 | 0.00 | 0.38 | 0.00 | 91 | 1016.1 |
| 20260509125609 | 12 | 203 | 1.6 | 6.4 | 0.00 | 0.38 | 0.00 | 92 | 1016.3 |
| 20260509125333 | 12 | 196 | 1.6 | 6.4 | 0.00 | 0.38 | 0.00 | 92 | 1016.1 |
| 20260509124559 | 12 | 148 | 1.6 | 8.0 | 0.00 | 0.38 | 0.00 | 92 | 1016.1 |
| 20260509124059 | 12 | 177 | 1.6 | 8.0 | 0.00 | 0.38 | 0.00 | 92 | 1016.1 |
| 20260509123558 | 12 | 175 | 1.6 | 6.4 | 0.00 | 0.38 | 0.00 | 93 | 1016.1 |
| 20260509123057 | 12 | 262 | 1.6 | 4.8 | 0.00 | 0.38 | 0.00 | 93 | 1016.4 |
| 20260509122556 | 11 | 240 | 1.6 | 6.4 | 0.00 | 0.41 | 0.00 | 93 | 1016.5 |
| 20260509122056 | 11 | 222 | 1.6 | 6.4 | 0.00 | 0.41 | 0.00 | 93 | 1016.5 |
| 20260509121827 | 11 | 242 | 1.6 | 4.8 | 0.00 | 0.41 | 0.00 | 93 | 1016.6 |
| 20260509121057 | 11 | 162 | 0.0 | 4.8 | 0.00 | 0.41 | 0.00 | 93 | 1016.6 |
| 20260509120557 | 11 | 269 | 1.6 | 4.8 | 0.00 | 0.41 | 0.00 | 93 | 1016.7 |
| 20260509120057 | 11 | 242 | 1.6 | 4.8 | 0.00 | 0.41 | 0.00 | 93 | 1016.7 |
| 20260509115552 | 11 | 159 | 1.6 | 3.2 | 0.00 | 0.41 | 0.00 | 93 | 1016.6 |
| 20260509115053 | 11 | 155 | 1.6 | 6.4 | 0.00 | 0.41 | 0.00 | 93 | 1016.6 |
| 20260509114553 | 11 | 196 | 1.6 | 6.4 | 0.00 | 0.41 | 0.00 | 93 | 1016.6 |
| 20260509114053 | 11 | 194 | 0.0 | 6.4 | 0.00 | 0.41 | 0.00 | 93 | 1016.6 |
| 20260509113553 | 11 | 217 | 1.6 | 6.4 | 0.00 | 0.41 | 0.00 | 93 | 1016.6 |
| 20260509113324 | 11 | 207 | 1.6 | 6.4 | 0.00 | 0.43 | 0.00 | 93 | 1016.4 |
| 20260509112824 | 11 | 231 | 1.6 | 6.4 | 0.00 | 0.43 | 0.00 | 93 | 1016.5 |
| 20260509112324 | 11 | 117 | 1.6 | 6.4 | 0.00 | 0.43 | 0.00 | 93 | 1016.5 |
| 20260509111553 | 11 | 261 | 0.0 | 4.8 | 0.00 | 0.43 | 0.00 | 93 | 1016.4 |
| 20260509111320 | 11 | 167 | 0.0 | 4.8 | 0.00 | 0.43 | 0.00 | 93 | 1016.4 |
| 20260509110819 | 11 | 166 | 0.0 | 3.2 | 0.00 | 0.43 | 0.00 | 93 | 1016.5 |
| 20260509110048 | 11 | 221 | 1.6 | 4.8 | 0.00 | 0.43 | 0.00 | 93 | 1016.1 |
| 20260509105549 | 11 | 257 | 1.6 | 4.8 | 0.00 | 0.43 | 0.00 | 93 | 1016.1 |
| 20260509105049 | 11 | 192 | 1.6 | 4.8 | 0.00 | 0.43 | 0.00 | 93 | 1016.1 |
| 20260509104549 | 11 | 146 | 0.0 | 4.8 | 0.00 | 0.43 | 0.00 | 93 | 1016.1 |
| 20260509104048 | 11 | 252 | 0.0 | 4.8 | 0.00 | 0.43 | 0.00 | 93 | 1016.1 |
| 20260509103548 | 11 | 246 | 1.6 | 4.8 | 0.00 | 0.43 | 0.00 | 93 | 1016.1 |
| 20260509103048 | 11 | 255 | 1.6 | 4.8 | 0.00 | 0.43 | 0.00 | 93 | 1016.1 |
| 20260509102542 | 11 | 166 | 1.6 | 9.7 | 0.00 | 0.43 | 0.00 | 93 | 1016.1 |
| 20260509102035 | 11 | 252 | 1.6 | 9.7 | 0.00 | 0.43 | 0.00 | 93 | 1016.3 |
| 20260509101529 | 11 | 144 | 1.6 | 11.3 | 0.00 | 0.43 | 0.00 | 93 | 1016.1 |
| 20260509101023 | 11 | 175 | 1.6 | 11.3 | 0.00 | 0.43 | 0.00 | 93 | 1016.1 |
| 20260509100518 | 11 | 250 | 1.6 | 6.4 | 0.00 | 0.43 | 0.00 | 93 | 1016.1 |
| 20260509100012 | 11 | 224 | 1.6 | 6.4 | 0.00 | 0.43 | 0.00 | 93 | 1016.1 |
| 20260509095506 | 11 | 344 | 1.6 | 6.4 | 0.00 | 0.43 | 0.00 | 93 | 1016.3 |